Temperature
16 17 17 18 15 13 15 16 17 18 18 19 20 19 17 17 18 19 19 19 18 17 16 15 15 14 14 14 13 13 13 13 12 12 12 11 11 11 11 11 11 11 11 11 11 11 11 11 11
17 17 17 17 13 14 15 15 17 18 19 19 19 19 18 18 19 19 19 18 18 17 16 15 15 14 14 14 13 13 13 12 12 12 11 11 11 11 11 11 11 11 11 11 11 11 11 10 11
17 17 17 13 13 14 16 17 16 18 19 19 19 19 19 20 20 20 20 18 17 17 16 15 15 14 14 14 13 13 13 12 12 11 11 11 11 11 10 10 10 10 10 10 10 10 10 10 10
17 17 16 13 14 14 16 17 17 17 19 19 19 18 19 20 20 20 19 18 17 17 16 15 15 14 14 14 13 13 13 12 12 11 11 11 11 10 10 10 10 10 10 10 10 10 10 10 10
17 17 14 13 15 15 15 17 18 17 18 19 19 17 19 19 20 19 19 18 17 17 16 15 15 14 14 14 13 13 12 12 11 11 11 10 10 10 10 10 10 10 10 10 10 10 10 10 10
16 13 13 13 15 16 16 18 18 18 18 18 19 18 19 19 19 19 19 18 17 17 16 15 15 14 14 13 13 12 12 12 11 11 10 10 10 10 10 10 10 10 10 10 10 10 10 10 10
15 12 13 14 15 16 17 18 18 17 17 19 20 18 19 19 19 19 18 18 17 16 16 15 14 14 14 13 13 12 12 12 11 11 11 10 10 10 10 10 10 10 10 10 10 10 10 10 10
16 12 14 14 15 16 18 19 19 19 19 20 20 18 19 20 19 18 18 17 16 16 16 15 15 14 14 13 13 12 12 12 11 11 11 11 10 10 10 10 10 10 10 10 10 10 10 9 9
16 12 13 14 15 17 18 18 19 20 20 19 20 20 20 20 19 18 17 16 16 16 15 15 15 14 14 14 13 12 12 12 11 11 11 11 11 10 10 10 10 10 10 10 9 9 9 9 9
15 12 14 15 16 17 18 18 19 18 18 18 19 20 20 20 20 19 18 18 17 17 16 15 15 15 14 14 13 13 12 12 11 11 11 11 11 10 10 10 10 10 10 10 9 9 9 9 9
13 13 14 16 17 17 18 18 19 18 17 19 20 20 20 20 20 20 20 20 19 18 17 16 15 15 14 14 13 13 12 12 12 11 11 11 11 10 10 10 10 10 9 9 9 9 9 9 9
13 14 15 17 18 18 18 18 18 18 20 21 21 21 21 20 20 20 20 20 19 18 18 17 16 15 15 14 14 13 13 12 12 12 11 11 11 10 10 10 10 9 9 9 9 9 9 9 9
13 14 16 17 18 18 18 17 18 19 20 20 20 20 21 20 21 21 21 20 19 19 18 17 16 15 15 14 14 13 13 13 12 12 11 11 11 10 10 10 10 9 9 9 9 9 9 9 9
14 15 16 17 17 17 17 17 17 19 20 20 20 20 20 20 21 20 20 20 19 19 19 18 17 16 15 15 14 14 13 13 12 12 11 11 11 10 10 10 9 9 9 9 9 9 9 9 9
15 14 14 15 16 16 16 15 15 19 19 19 19 20 20 20 20 20 20 20 20 20 19 18 17 16 15 15 14 14 13 13 12 12 11 11 10 10 10 10 9 9 9 9 9 9 9 9 9
14 14 13 14 14 15 15 15 15 19 18 18 19 19 19 19 19 20 20 20 20 19 19 18 17 16 16 15 15 14 13 13 12 12 11 11 10 10 10 10 9 9 9 9 9 9 9 9 9
12 12 12 14 14 14 14 14 15 18 17 17 18 19 19 19 19 19 19 19 19 19 19 18 18 17 16 15 15 14 13 13 12 12 11 11 10 10 10 9 9 9 9 9 9 9 9 9 9
11 11 12 13 14 13 13 13 14 16 16 16 17 18 18 19 20 20 20 19 19 19 18 18 18 17 16 15 14 13 13 12 12 12 11 11 11 10 10 10 9 9 9 9 9 9 9 9 9
12 12 13 13 14 13 12 13 14 15 14 14 16 17 18 19 20 20 20 19 19 18 18 18 17 17 16 15 14 14 13 13 12 12 11 11 11 10 10 10 9 9 9 9 9 9 9 9 9
12 12 13 14 14 13 13 12 13 13 13 15 16 17 18 19 20 20 20 19 19 19 19 18 18 17 17 16 16 15 14 14 13 12 11 11 11 10 10 10 9 9 9 9 9 9 9 8 8
12 12 12 13 14 14 14 13 13 13 14 15 16 17 18 19 20 20 20 20 20 19 19 19 19 18 17 17 15 14 13 12 12 12 11 11 11 10 10 10 9 9 9 9 9 9 8 8 8
12 12 13 13 13 12 13 12 12 13 13 13 14 16 18 19 19 20 20 20 20 20 20 19 19 18 18 17 15 15 14 13 13 13 12 11 11 10 10 10 9 9 9 9 9 9 8 8 8
12 13 13 13 12 11 11 11 12 12 13 14 14 16 18 19 19 20 20 20 20 20 19 19 19 18 17 17 16 15 15 14 14 13 12 11 11 11 10 10 10 9 9 9 9 9 8 8 8
12 12 11 10 10 10 11 11 11 11 13 14 14 16 18 19 19 19 19 19 19 19 19 19 18 18 17 16 16 15 15 14 13 13 12 11 11 11 10 10 10 9 9 9 9 8 8 8 8
12 11 10 10 10 10 10 10 12 13 13 14 14 16 18 18 18 19 19 19 19 19 19 18 18 17 17 16 15 15 14 14 13 13 12 12 11 11 11 10 10 9 9 9 9 8 8 8 8
11 11 10 11 10 10 10 10 12 12 13 14 15 16 17 18 18 18 18 18 19 18 18 18 17 17 16 16 15 14 14 13 13 12 12 12 11 11 11 10 10 9 9 9 9 8 8 8 8
11 11 11 11 10 10 9 9 10 12 12 12 13 14 16 17 18 18 18 18 18 18 18 17 17 16 16 15 14 14 13 13 12 12 12 11 11 11 10 10 10 9 9 9 8 8 8 8 8
12 11 11 10 10 10 10 10 11 14 14 13 12 13 16 17 18 18 18 18 17 17 17 16 16 16 15 14 14 13 13 12 12 12 11 11 11 10 10 10 9 9 9 9 8 8 8 8 7
10 11 11 10 9 10 10 11 12 13 14 13 13 15 16 17 18 18 18 17 17 17 16 16 15 15 14 14 13 13 12 12 12 11 11 11 10 10 10 10 9 9 9 8 8 8 7 7 7
10 10 10 10 9 9 10 12 13 12 13 13 13 15 17 17 17 17 17 17 17 16 16 16 15 14 14 14 13 13 12 12 11 11 11 10 10 10 9 9 9 9 8 8 8 8 7 7 7
Wind_Speed
4 3 3 4 5 4 4 6 4 3 4 1 3 7 9 7 6 4 2 10 11 11 16 19 20 19 18 17 16 15 14 14 13 13 13 13 13 13 13 13 13 13 14 14 14 14 15 15 15
1 2 4 5 5 2 6 6 6 6 5 5 4 5 6 4 2 6 6 9 12 14 16 17 20 20 19 18 18 16 15 14 13 13 13 12 13 12 12 13 13 13 13 13 14 14 14 14 14
1 2 4 4 5 7 6 6 7 3 5 4 4 2 4 5 5 8 7 12 12 13 16 19 21 21 20 19 18 17 15 14 13 13 12 12 12 12 12 12 12 12 13 13 13 12 12 13 13
3 4 5 3 6 7 6 5 5 4 4 4 6 4 1 1 6 6 10 13 13 11 15 19 22 21 20 19 19 17 15 14 13 13 12 12 12 12 12 12 11 11 12 12 11 11 11 11 11
4 4 2 2 6 6 6 5 5 6 6 5 7 7 2 2 4 9 13 14 14 11 14 18 22 21 20 19 18 17 16 15 14 13 12 12 11 11 11 11 10 10 10 10 10 10 10 10 10
4 4 3 5 7 6 5 5 6 5 4 5 8 8 4 2 7 10 13 12 12 11 12 16 21 21 20 19 19 18 16 15 14 13 12 12 11 11 10 10 9 9 9 9 9 9 9 9 10
5 5 5 5 4 5 5 6 7 7 6 7 9 8 3 4 7 11 11 10 10 10 10 12 17 19 20 19 19 18 17 15 15 14 12 12 11 10 10 9 8 7 7 7 8 8 8 8 8
5 5 4 4 5 6 3 4 5 9 7 4 8 9 7 7 10 11 10 9 9 8 8 9 12 16 17 18 19 18 17 16 15 14 13 11 10 9 9 8 7 6 6 6 6 6 7 7 8
5 3 5 7 7 6 2 3 2 3 6 4 3 3 2 15 16 14 10 9 10 11 8 8 9 13 15 16 18 18 17 16 15 14 13 11 8 8 7 6 5 5 5 4 4 5 6 7 8
5 6 9 6 6 4 3 4 4 5 5 4 2 3 8 16 19 19 16 18 17 17 14 9 9 11 14 14 15 15 15 15 14 14 13 11 9 7 6 4 3 3 3 3 4 6 7 8 8
7 8 6 6 5 4 3 3 3 8 6 9 10 10 13 14 16 18 18 18 18 17 15 13 11 12 12 10 12 12 12 12 13 14 14 11 9 7 5 3 1 2 3 4 5 6 7 7 7
7 7 6 5 4 4 4 3 3 7 8 6 9 13 16 18 20 20 20 18 14 14 17 14 12 12 12 11 10 11 10 11 11 13 14 11 7 5 4 3 2 1 2 3 3 4 5 6 6
8 6 5 7 6 4 4 5 5 7 5 2 8 13 17 20 19 17 13 11 12 15 17 15 14 14 12 10 9 10 10 11 13 13 14 13 9 5 5 4 4 3 3 2 2 3 3 4 4
8 8 7 6 6 4 5 6 4 9 4 5 9 13 16 18 19 13 11 13 16 17 18 16 16 15 13 11 9 9 11 13 13 13 14 15 12 9 6 5 4 4 4 3 3 2 2 2 3
5 4 6 6 6 5 4 8 9 9 5 6 9 11 13 15 13 15 18 18 18 17 17 18 17 15 15 13 11 11 12 13 12 13 15 15 14 11 9 5 4 5 5 4 4 3 3 2 2
4 5 7 7 7 6 8 13 11 8 8 10 10 10 11 13 14 15 15 14 14 13 16 18 16 17 17 14 12 11 13 13 12 14 15 15 15 14 10 6 5 7 6 5 3 2 2 2 2
4 6 8 7 7 7 9 10 10 6 9 11 11 11 11 12 13 14 14 14 14 16 16 18 18 19 18 15 12 10 11 12 12 13 13 15 15 15 12 8 7 8 6 4 3 2 2 1 1
9 7 7 9 5 8 9 11 11 6 8 11 10 10 11 12 16 15 15 15 14 14 15 17 18 17 16 12 9 8 8 8 11 12 14 15 15 15 13 8 8 9 5 3 3 3 2 2 1
8 8 8 7 5 8 11 13 14 11 8 10 11 11 12 14 14 11 12 12 12 13 15 18 19 17 15 14 13 12 12 10 9 9 14 16 16 16 13 8 7 7 5 5 5 3 3 2 1
9 9 8 5 4 7 8 11 12 11 10 11 13 14 14 12 10 10 10 11 14 16 18 18 19 19 18 16 14 10 8 7 8 7 11 15 16 16 14 10 7 7 5 6 5 4 3 2 2
12 12 10 6 1 2 4 9 9 9 8 9 10 11 11 13 14 11 10 11 12 15 18 18 20 19 19 15 10 7 5 4 6 8 9 11 15 16 14 13 10 8 7 7 6 6 6 4 1
16 11 9 7 4 5 3 7 9 7 8 9 11 10 11 12 11 9 9 10 12 15 14 15 17 17 17 16 15 16 12 11 12 9 9 9 13 14 15 14 12 9 7 7 7 6 5 5 3
9 9 9 7 6 5 4 5 9 5 9 11 11 12 12 11 10 10 9 10 10 11 11 12 14 15 15 17 18 18 13 10 7 6 9 10 9 11 13 13 11 9 7 8 8 7 6 5 5
7 6 4 2 3 9 12 8 9 7 10 8 9 10 10 9 8 7 6 6 6 7 9 10 13 14 15 17 17 17 15 12 11 9 10 9 7 7 10 11 10 9 8 8 8 8 8 6 5
10 8 5 5 7 10 8 9 11 10 10 10 10 10 10 8 6 6 6 6 7 8 10 11 13 13 14 16 16 16 15 15 14 12 12 10 8 7 10 9 9 8 8 9 8 7 7 7 6
15 14 10 8 8 5 6 10 10 9 8 9 10 8 8 7 7 7 8 7 7 9 10 11 13 12 14 15 15 13 13 11 10 11 10 11 10 10 10 10 10 9 9 9 8 6 6 6 7
13 13 8 5 3 3 6 7 10 7 8 8 8 8 9 8 8 7 7 7 7 8 9 10 12 11 13 13 12 11 12 11 10 10 9 9 7 7 10 10 10 9 9 9 8 6 6 6 6
11 11 7 7 8 7 6 6 7 7 11 10 10 10 10 8 7 7 6 6 6 6 6 7 9 10 10 11 11 10 11 11 10 9 10 9 8 8 9 9 9 9 8 8 8 6 6 7 6
9 11 8 8 6 7 5 8 9 11 11 12 13 11 10 9 8 7 6 5 6 6 7 7 8 8 8 10 10 10 9 9 9 9 10 9 8 9 10 10 9 9 9 8 8 7 7 7 6
9 12 11 11 8 6 5 8 6 9 8 9 10 9 8 8 6 6 6 6 6 7 7 8 8 9 9 9 9 9 9 9 9 9 9 9 9 9 9 9 8 8 8 8 9 8 8 8 7
Wind_Direction
345 24 75 61 62 64 229 237 220 220 214 199 144 150 157 164 172 190 137 147 140 149 163 161 156 152 148 144 140 135 130 125 121 117 113 108 104 100 94 90 86 83 82 80 79 77 75 73 73
49 93 61 67 108 184 250 234 218 214 181 125 96 111 133 182 166 133 145 167 148 151 157 158 156 153 150 147 143 139 134 129 125 122 117 112 107 103 99 95 91 89 86 83 81 80 78 75 72
121 64 94 94 153 193 227 220 213 218 170 155 121 121 162 173 168 173 178 158 145 150 155 158 157 155 153 150 146 143 139 135 130 127 122 118 113 107 104 100 95 92 89 85 82 79 77 75 73
97 55 63 109 216 222 223 225 186 154 175 178 140 123 237 358 176 176 149 150 145 148 155 162 159 157 155 153 150 147 145 141 137 132 128 124 118 113 109 104 99 95 92 88 84 80 76 73 72
66 89 106 232 239 244 238 230 184 173 180 169 146 145 160 19 108 132 145 151 151 151 157 165 161 160 159 157 154 152 149 146 143 139 134 130 124 119 113 108 104 99 94 89 85 80 75 71 71
68 82 139 228 247 259 250 205 169 180 179 162 148 147 178 103 134 147 150 151 152 152 158 167 165 163 163 161 159 156 154 152 150 146 142 136 130 126 122 117 111 102 96 90 84 78 73 70 70
128 131 191 214 244 257 237 181 177 177 186 193 166 147 211 168 161 146 141 139 145 151 156 167 168 166 167 166 163 160 159 158 155 151 148 143 140 136 131 126 118 108 99 91 85 77 72 68 65
145 138 193 215 221 246 230 178 189 174 196 164 151 155 201 182 145 131 127 134 147 156 162 166 165 164 167 166 166 164 163 162 159 155 150 148 146 142 136 132 127 116 105 96 84 74 68 61 55
118 123 208 212 205 238 233 195 191 161 137 149 186 182 180 136 139 137 141 154 167 175 177 169 162 162 162 165 169 167 167 166 162 157 153 148 140 135 130 134 138 128 114 98 79 66 59 53 45
143 189 218 213 204 223 231 201 181 134 146 171 155 76 119 143 154 161 169 176 183 187 186 178 169 164 163 168 168 167 166 166 160 155 152 150 147 144 141 150 149 129 103 80 61 58 53 49 43
178 202 220 233 226 226 221 220 184 150 192 202 191 171 153 162 169 176 182 185 189 187 186 184 176 170 168 166 163 163 162 159 157 157 157 156 153 151 149 151 144 93 75 63 50 52 50 48 46
192 226 216 229 214 213 211 208 198 190 216 216 189 160 164 174 183 188 190 191 184 184 191 186 180 176 174 168 167 164 163 162 163 165 165 162 158 160 165 167 167 138 106 82 61 55 52 51 49
211 231 224 234 241 229 219 227 223 234 237 133 131 152 176 185 195 199 195 183 182 190 192 190 185 183 178 171 173 173 172 173 172 172 174 173 169 172 175 181 184 177 154 129 102 77 60 47 42
213 217 235 241 236 227 220 245 215 243 213 155 159 179 192 196 199 194 187 187 192 196 194 191 190 188 181 182 181 179 179 177 176 179 182 182 180 178 178 184 186 187 177 163 139 113 88 61 52
189 208 258 243 221 222 199 262 231 229 187 194 198 201 206 212 205 202 201 199 197 196 193 192 193 189 188 187 185 183 183 180 181 185 187 187 187 185 183 181 186 192 180 156 129 108 89 69 53
161 186 233 244 203 202 176 247 251 226 195 219 222 218 218 222 217 216 211 207 198 191 191 193 193 193 193 191 187 186 185 184 187 187 188 191 191 189 182 180 188 188 170 153 133 117 96 68 51
188 201 215 243 208 182 190 238 251 217 200 225 228 224 223 228 231 225 216 210 201 195 192 192 193 193 195 192 188 185 184 188 190 188 189 193 193 189 183 184 187 177 161 154 143 118 128 107 51
196 196 204 217 216 180 210 240 256 238 206 232 239 236 230 230 232 225 216 211 204 197 192 193 194 193 190 187 181 180 184 191 190 191 194 193 192 189 184 182 179 170 155 154 146 137 111 110 105
182 183 207 222 210 185 223 243 253 254 233 240 244 241 237 235 239 228 215 207 199 194 192 193 194 191 185 187 190 192 198 196 195 196 195 193 191 187 183 180 173 171 172 172 159 141 129 102 93
199 207 220 242 208 199 240 256 256 249 235 228 233 237 236 238 244 231 214 201 199 198 197 195 195 191 189 193 193 193 186 189 192 189 193 194 191 187 187 181 178 175 169 164 163 151 140 126 104
210 208 210 215 251 241 281 285 262 259 237 239 234 234 234 230 234 232 216 206 201 201 199 198 196 192 192 186 175 157 147 142 175 192 196 195 192 189 188 186 180 177 175 178 178 168 159 163 146
222 207 195 202 210 253 216 272 272 255 263 248 241 236 235 233 229 227 217 206 203 205 200 197 193 191 187 179 179 179 187 192 195 191 192 188 190 190 189 185 183 180 179 179 180 175 167 154 168
207 180 185 199 207 253 235 244 272 255 253 249 239 235 235 230 223 223 216 208 202 197 192 190 186 186 182 183 185 187 193 192 173 166 177 186 189 190 189 186 184 183 183 182 175 171 173 171 169
149 118 113 122 177 243 226 215 266 228 223 238 233 231 232 226 215 214 207 188 186 180 180 179 180 184 181 184 186 190 189 177 168 174 182 187 186 188 189 186 185 185 183 183 182 179 178 180 174
164 149 170 193 212 236 198 208 246 233 222 224 230 232 231 221 208 207 200 191 184 176 177 177 178 182 182 184 188 192 190 183 183 183 185 184 183 190 193 187 186 186 187 182 176 177 182 181 181
188 177 185 191 202 229 182 221 247 240 238 236 235 230 221 216 210 210 205 195 186 178 175 175 178 180 181 185 189 188 184 185 189 185 184 188 192 194 187 186 187 186 182 178 175 180 185 182 188
177 196 184 161 165 196 228 259 288 254 244 234 229 221 220 219 214 210 200 188 181 176 177 177 176 176 180 184 182 181 181 183 184 182 181 185 185 181 179 183 184 183 180 177 173 184 186 182 191
177 164 161 180 178 217 244 239 234 226 220 216 217 219 220 214 206 200 190 182 176 172 168 166 170 176 176 178 180 182 183 183 179 176 180 182 178 173 174 180 182 181 180 176 176 181 180 182 192
166 176 175 178 192 181 219 249 219 210 204 206 215 214 208 205 201 193 184 173 163 156 158 162 164 163 168 174 176 174 177 176 172 176 181 178 173 172 177 182 180 181 181 178 180 185 179 188 195
179 178 172 187 204 193 194 257 243 216 219 210 216 212 205 200 190 182 174 162 162 165 166 167 167 168 171 170 169 172 170 168 171 176 176 171 172 176 177 175 176 180 182 180 184 188 186 190 198
Height
1501 1501 1503 1505 1510 1519 1518 1509 1503 1501 1499 1497 1497 1499 1502 1505 1509 1512 1507 1507 1510 1514 1517 1520 1523 1526 1529 1531 1532 1534 1535 1537 1538 1538 1539 1540 1540 1541 1541 1542 1542 1543 1543 1543 1543 1543 1543 1543 1543
1500 1501 1504 1505 1514 1524 1517 1505 1501 1497 1495 1496 1497 1498 1500 1501 1502 1503 1504 1507 1510 1514 1517 1520 1523 1526 1529 1531 1532 1534 1536 1537 1538 1539 1540 1540 1541 1541 1542 1543 1543 1543 1543 1543 1544 1544 1544 1544 1544
1500 1501 1503 1506 1514 1517 1508 1498 1496 1494 1495 1495 1497 1498 1499 1500 1501 1502 1504 1506 1510 1513 1517 1520 1523 1526 1528 1531 1532 1534 1536 1537 1538 1539 1540 1541 1542 1542 1543 1543 1543 1544 1544 1544 1544 1545 1545 1545 1545
1499 1501 1503 1509 1509 1504 1498 1492 1492 1493 1494 1495 1495 1498 1499 1500 1501 1503 1504 1506 1509 1513 1516 1520 1523 1525 1528 1530 1532 1534 1536 1537 1538 1539 1540 1541 1542 1543 1543 1544 1544 1545 1545 1545 1545 1546 1546 1546 1546
1499 1500 1505 1510 1505 1497 1492 1490 1491 1492 1492 1493 1494 1496 1498 1500 1501 1502 1504 1507 1510 1513 1516 1519 1522 1525 1528 1530 1532 1534 1536 1537 1538 1539 1541 1542 1542 1543 1544 1544 1545 1545 1546 1546 1547 1547 1547 1547 1547
1498 1499 1510 1510 1501 1494 1489 1487 1489 1490 1491 1492 1493 1495 1497 1499 1500 1503 1505 1507 1511 1513 1516 1519 1522 1525 1527 1530 1532 1533 1535 1537 1538 1539 1541 1542 1543 1543 1544 1545 1545 1546 1547 1547 1547 1548 1548 1548 1548
1496 1501 1505 1502 1499 1493 1487 1485 1486 1487 1489 1490 1491 1494 1495 1498 1500 1503 1505 1508 1511 1514 1516 1519 1522 1524 1527 1529 1531 1533 1535 1536 1538 1539 1540 1542 1543 1543 1544 1545 1546 1547 1547 1548 1548 1548 1548 1548 1548
1493 1497 1499 1499 1497 1491 1484 1483 1483 1484 1486 1488 1490 1491 1493 1496 1498 1501 1505 1507 1510 1513 1515 1518 1520 1523 1525 1528 1530 1532 1534 1536 1537 1539 1540 1541 1542 1544 1545 1545 1546 1547 1548 1548 1549 1549 1549 1549 1548
1491 1498 1500 1495 1492 1486 1482 1482 1482 1483 1484 1486 1488 1489 1490 1493 1496 1499 1503 1506 1508 1511 1514 1516 1519 1522 1524 1527 1529 1531 1533 1535 1537 1538 1540 1541 1542 1543 1545 1546 1546 1547 1548 1549 1549 1549 1549 1549 1549
1487 1495 1490 1485 1483 1481 1480 1480 1480 1481 1483 1484 1486 1487 1488 1491 1493 1496 1498 1501 1504 1507 1511 1514 1517 1520 1523 1525 1528 1530 1532 1534 1536 1537 1539 1541 1542 1543 1545 1546 1547 1547 1548 1549 1549 1549 1549 1549 1549
1483 1485 1481 1479 1479 1479 1479 1479 1479 1479 1482 1480 1481 1483 1486 1489 1491 1493 1495 1498 1501 1504 1508 1511 1515 1518 1521 1523 1526 1528 1531 1533 1534 1536 1538 1540 1541 1543 1544 1545 1546 1547 1548 1549 1549 1549 1549 1549 1549
1479 1477 1477 1476 1477 1477 1477 1477 1477 1477 1477 1477 1478 1480 1482 1485 1487 1490 1492 1495 1499 1502 1505 1509 1512 1515 1518 1521 1524 1526 1529 1531 1533 1535 1537 1539 1541 1542 1544 1545 1546 1547 1548 1548 1549 1549 1549 1549 1549
1475 1474 1473 1474 1474 1475 1475 1475 1475 1474 1475 1475 1476 1478 1480 1482 1484 1487 1490 1493 1496 1499 1502 1506 1509 1512 1516 1519 1522 1524 1527 1529 1532 1534 1536 1538 1540 1541 1543 1544 1545 1546 1547 1548 1548 1548 1549 1549 1548
1469 1470 1471 1471 1471 1472 1473 1472 1473 1470 1472 1473 1474 1475 1477 1479 1481 1484 1487 1489 1493 1496 1499 1503 1506 1509 1513 1516 1519 1522 1525 1527 1530 1532 1534 1537 1539 1540 1542 1543 1545 1546 1547 1547 1548 1548 1548 1548 1548
1467 1469 1469 1467 1468 1468 1471 1471 1468 1467 1469 1470 1471 1472 1474 1476 1478 1480 1482 1485 1489 1492 1496 1499 1502 1506 1509 1513 1516 1519 1522 1525 1527 1530 1533 1535 1537 1539 1540 1542 1543 1545 1546 1546 1547 1547 1547 1547 1547
1465 1469 1472 1465 1464 1465 1472 1471 1462 1463 1465 1465 1467 1468 1470 1471 1473 1476 1479 1482 1485 1488 1492 1495 1499 1502 1505 1509 1513 1516 1519 1522 1525 1528 1530 1533 1535 1537 1539 1540 1542 1543 1544 1545 1546 1546 1546 1546 1546
1467 1472 1470 1465 1460 1462 1466 1465 1458 1458 1460 1460 1461 1463 1464 1466 1468 1471 1474 1477 1480 1483 1487 1490 1494 1497 1501 1505 1509 1513 1516 1519 1522 1525 1528 1530 1533 1535 1536 1538 1540 1541 1542 1543 1544 1545 1545 1545 1545
1466 1467 1466 1464 1458 1461 1464 1461 1455 1454 1456 1455 1456 1457 1459 1460 1462 1465 1468 1471 1474 1478 1481 1485 1489 1493 1497 1501 1505 1509 1512 1516 1519 1521 1524 1527 1530 1532 1534 1536 1538 1539 1540 1541 1542 1543 1543 1543 1543
1456 1460 1461 1459 1455 1459 1460 1458 1452 1449 1452 1451 1451 1451 1452 1453 1456 1459 1462 1465 1468 1471 1475 1478 1482 1487 1491 1495 1499 1502 1506 1510 1514 1517 1521 1524 1527 1529 1531 1533 1535 1536 1538 1539 1540 1541 1541 1542 1541
1453 1457 1458 1456 1453 1456 1458 1455 1448 1445 1444 1443 1444 1444 1445 1447 1449 1452 1455 1458 1460 1464 1467 1471 1475 1480 1484 1488 1493 1497 1502 1505 1509 1513 1517 1520 1523 1526 1528 1530 1532 1534 1535 1536 1537 1538 1539 1539 1539
1449 1452 1454 1455 1453 1453 1455 1453 1446 1438 1437 1436 1436 1436 1437 1439 1441 1444 1448 1450 1453 1457 1460 1464 1469 1473 1478 1483 1488 1493 1497 1501 1505 1508 1511 1515 1519 1522 1524 1527 1529 1531 1532 1533 1535 1535 1536 1537 1537
1444 1444 1448 1452 1457 1461 1458 1463 1446 1437 1434 1431 1430 1430 1430 1432 1435 1438 1441 1444 1447 1450 1455 1458 1463 1467 1471 1476 1481 1485 1489 1493 1497 1502 1506 1510 1514 1517 1520 1523 1525 1527 1529 1530 1531 1532 1533 1534 1534
1436 1439 1446 1450 1456 1461 1459 1462 1446 1436 1433 1426 1423 1423 1424 1426 1429 1431 1434 1437 1441 1444 1448 1452 1456 1461 1465 1470 1474 1479 1484 1488 1493 1497 1502 1506 1510 1513 1516 1518 1521 1523 1525 1526 1528 1529 1530 1530 1531
1433 1441 1447 1453 1458 1463 1455 1460 1446 1435 1425 1419 1417 1417 1419 1421 1424 1426 1429 1432 1435 1438 1442 1446 1450 1455 1459 1464 1469 1473 1478 1483 1488 1492 1496 1501 1504 1508 1511 1514 1516 1519 1521 1522 1524 1525 1526 1526 1527
1430 1442 1454 1458 1460 1455 1447 1450 1434 1419 1415 1413 1412 1413 1414 1417 1419 1422 1424 1427 1430 1433 1437 1441 1445 1450 1454 1459 1463 1468 1473 1478 1482 1487 1491 1495 1499 1502 1506 1509 1512 1514 1516 1518 1519 1521 1521 1522 1523
1423 1431 1441 1447 1451 1449 1447 1443 1423 1410 1407 1407 1407 1409 1410 1412 1415 1418 1420 1423 1426 1429 1433 1437 1441 1445 1450 1454 1459 1464 1468 1473 1478 1483 1487 1490 1494 1498 1501 1504 1507 1509 1512 1513 1515 1516 1517 1518 1518
1418 1423 1426 1436 1442 1445 1442 1434 1419 1405 1404 1403 1404 1405 1406 1408 1411 1414 1416 1419 1422 1426 1430 1433 1437 1441 1445 1450 1454 1459 1464 1468 1473 1478 1482 1486 1490 1494 1497 1500 1502 1505 1507 1508 1510 1511 1512 1513 1514
1406 1414 1425 1433 1438 1438 1433 1429 1417 1402 1400 1400 1400 1400 1401 1405 1408 1410 1413 1416 1420 1424 1427 1431 1435 1438 1442 1446 1451 1455 1459 1464 1469 1473 1477 1482 1485 1489 1492 1495 1497 1500 1502 1503 1505 1506 1507 1508 1509
1405 1412 1414 1424 1428 1430 1432 1419 1397 1392 1391 1393 1394 1394 1397 1401 1405 1408 1411 1415 1418 1422 1425 1428 1432 1435 1439 1443 1447 1451 1456 1460 1465 1469 1473 1477 1481 1484 1487 1490 1492 1494 1496 1498 1500 1501 1502 1503 1504
1394 1400 1407 1414 1423 1422 1421 1410 1385 1386 1386 1388 1389 1392 1395 1399 1403 1406 1410 1413 1416 1419 1423 1426 1429 1433 1436 1440 1444 1448 1452 1456 1460 1465 1469 1473 1476 1480 1482 1485 1487 1489 1491 1493 1495 1496 1497 1498 1499